星链-4668 (STARLINK-4668 )

导读 | 星芒AI

STARLINK-4668 是 SpaceX 星链计划中的一颗低轨通信卫星,属于该系列的第 4668 号卫星。它主要用于提供全球范围内的高速互联网服务,特别是在偏远和网络覆盖不足的地区。该卫星运行在约 550 公里的轨道高度,采用先进的通信技术和推进系统,支持星间通信以提高网络效率。作为星链星座的一部分,STARLINK-4668 有助于构建一个低延迟、高带宽的全球卫星互联网系统。

基本信息
目录编号:
53596
目录名称:
STARLINK-4668
国际标识:
2022-104J
轨道中心:
EARTH
卫星名称:
星链-4668
卫星全名:
星链-4668 (STARLINK-4668 )
卫星状态:
已陨落 最后检测时间 2025-06-13
发射日期:
2022-08-28 UTC
国别 :
美国 (US)
星等 :
--
轨道信息
数据来源 国际轨道数据
星历时间: 2025-06-14T01:42:43+0800
轨道信息已过期144天
半长轴: 6539.884km
偏心率: 0.0005723
轨道倾角: 53.184°
近地点辐角 304.029°
升交点赤经 280.965°
平近点角 211.553°
近地点: 158.006km
远地点: 165.492km
周期: 87.723分钟
每日圈数: 16.41526
详细信息
固有亮度:
5
最大亮度:
2.5
卫星平台:
Starlink v1.5
覆盖范围:
全球
运营商:
太空探索技术公司
运营商所在国:
美国
制造商(研发单位):
太空探索技术公司
制造商所在国:
美国
使用方式:
暂无
卫星简介
星链(Starlink)计划是由太空探索技术公司(SpaceX)提出的一个巨型低轨卫星互联网星座项目,计划在2019年至2024年间在太空搭建由约1.2万颗卫星组成的“星链”网络,其中1584颗将部署在地球上空550千米处的近地轨道,并从2020年开始工作。该卫星仍在工作。